Weather reports worldwide

Advertisment
Ramstein, Germany (10614): temperature & dewpoint: 15.06.2018 23:00:00 - 21.06.2018 23:00:00 (CEST)Ramstein, Germany (10614): wind speed: 15.06.2018 23:00:00 - 21.06.2018 23:00:00 (CEST)Ramstein, Germany (10614): wind direction: 15.06.2018 23:00:00 - 21.06.2018 23:00:00 (CEST)Ramstein, Germany (10614): reduced air pressure: 15.06.2018 23:00:00 - 21.06.2018 23:00:00 (CEST)Ramstein, Germany (10614): visibility: 15.06.2018 23:00:00 - 21.06.2018 23:00:00 (CEST)Ramstein, Germany (10614): precipitation: 15.06.2018 23:00:00 - 21.06.2018 23:00:00 (CEST)
Date & Time tt [°C] td [°C] ff [km/h] ff [kn] dd ppp [hPa] vv [km] rr [mm]
21.06.2018 23:00:00 13,3 4,2 9 5 NNW 1023,1 10 -
21.06.2018 22:00:00 14,8 4,5 11 6 N 1022,4 10 -
21.06.2018 21:00:00 17,1 5,4 15 8 N 1021,0 10 -
21.06.2018 20:00:00 19,4 5,1 18 10 N 1020,0 10 -
21.06.2018 19:00:00 20,9 6,4 15 8 NNW 1019,3 10 -
21.06.2018 18:00:00 21,8 6,8 16 9 NNW 1018,6 10 -
21.06.2018 17:00:00 22,6 9,0 21 11 NW 1018,4 10 -
21.06.2018 16:00:00 23,0 11,0 22 12 NNW 1018,0 10 -
21.06.2018 15:00:00 21,8 12,3 28 15 NW 1017,6 10 0,0
21.06.2018 14:00:00 20,9 14,8 18 10 NNW 1017,6 10 -
21.06.2018 13:00:00 24,0 15,2 22 12 NW 1016,9 10 -
21.06.2018 12:00:00 23,2 15,0 26 14 WNW 1016,8 10 0,0
21.06.2018 11:00:00 23,7 14,7 28 15 W 1016,4 10 -
21.06.2018 10:00:00 22,5 14,6 24 13 W 1015,9 10 -
21.06.2018 09:00:00 21,9 15,5 22 12 W 1016,1 10 -
21.06.2018 08:00:00 19,6 17,0 13 7 W 1015,8 10 -
21.06.2018 07:00:00 16,6 16,6 11 6 W 1016,2 10 -
21.06.2018 06:00:00 15,5 15,5 0 0 N 1016,2 10 -
21.06.2018 05:00:00 13,7 13,7 0 0 N 1015,9 10 -
21.06.2018 04:00:00 13,6 13,6 0 0 N 1016,4 10 -
21.06.2018 03:00:00 15,9 15,9 0 0 N 1016,6 10 -
21.06.2018 02:00:00 17,1 17,1 0 0 N 1017,0 10 -
21.06.2018 01:00:00 16,3 16,3 0 0 N 1017,1 10 -
21.06.2018 00:00:00 17,2 17,2 0 0 N 1017,7 10 -
20.06.2018 23:00:00 18,3 18,3 0 0 N 1017,7 10 0,0
20.06.2018 22:00:00 21,7 18,7 0 0 N 1017,3 10 -
20.06.2018 21:00:00 26,2 17,0 9 5 WNW 1017,2 10 -
20.06.2018 20:00:00 28,2 17,4 9 5 W 1017,2 10 -
20.06.2018 19:00:00 28,8 17,3 0 0 N 1017,6 10 -
20.06.2018 18:00:00 28,9 18,0 8 4 WNW 1018,2 10 -
20.06.2018 17:00:00 29,2 18,3 0 0 N 1018,8 10 -
20.06.2018 16:00:00 28,6 18,1 0 0 N 1019,1 10 -
20.06.2018 15:00:00 28,4 18,2 9 5 WSW 1019,8 10 -
20.06.2018 14:00:00 26,5 17,8 0 0 N 1020,2 10 -
20.06.2018 13:00:00 26,8 18,1 0 0 N 1020,8 10 -
20.06.2018 12:00:00 25,7 17,8 0 0 N 1021,1 10 -
20.06.2018 11:00:00 24,3 17,3 5 3 ENE 1021,5 10 -
20.06.2018 10:00:00 22,9 17,1 5 3 E 1021,8 10 -
20.06.2018 09:00:00 20,2 17,6 5 3 ENE 1022,2 10 -
20.06.2018 08:00:00 17,3 17,1 0 0 N 1022,6 10 -
20.06.2018 07:00:00 14,2 14,2 0 0 N 1022,8 10 -
20.06.2018 06:00:00 11,3 11,3 0 0 N 1023,2 10 -
20.06.2018 05:00:00 12,9 12,9 0 0 N 1023,1 10 -
20.06.2018 04:00:00 13,2 13,2 0 0 N 1023,5 10 -
20.06.2018 03:00:00 13,2 13,2 0 0 N 1023,8 10 -
20.06.2018 02:00:00 13,8 13,8 0 0 N 1023,8 10 -
20.06.2018 01:00:00 14,5 14,5 0 0 N 1023,8 10 -
20.06.2018 00:00:00 16,2 16,2 0 0 N 1023,8 10 -
19.06.2018 23:00:00 17,6 17,6 0 0 N 1023,7 10 -
19.06.2018 22:00:00 19,3 17,8 0 0 N 1023,4 10 -
19.06.2018 21:00:00 21,7 16,4 5 3 NW 1023,3 10 -
19.06.2018 20:00:00 22,9 16,7 8 4 NW 1023,3 10 -
19.06.2018 19:00:00 22,8 16,6 5 3 NW 1023,7 10 -
19.06.2018 18:00:00 22,7 16,5 5 3 W 1024,2 10 -
19.06.2018 17:00:00 22,5 16,3 13 7 W 1024,2 10 -
19.06.2018 16:00:00 22,4 16,0 8 4 W 1024,6 10 -
19.06.2018 15:00:00 22,9 15,2 5 3 - 1024,6 10 -
19.06.2018 14:00:00 21,5 15,1 5 3 W 1024,9 10 -
19.06.2018 13:00:00 21,2 15,3 11 6 WSW 1025,3 10 -
19.06.2018 12:00:00 20,1 15,5 8 4 WSW 1024,8 10 -
19.06.2018 11:00:00 19,3 15,0 8 4 SW 1025,2 10 -
19.06.2018 10:00:00 18,9 15,0 16 9 W 1025,1 10 -
19.06.2018 09:00:00 17,5 16,3 15 8 W 1024,7 10 -
19.06.2018 08:00:00 17,0 16,8 15 8 W 1024,4 10 -
19.06.2018 07:00:00 15,1 15,1 0 0 N - 10 -
19.06.2018 06:00:00 13,3 13,3 9 5 WNW - 10 -
19.06.2018 05:00:00 12,6 12,6 11 6 WNW - 10 -
19.06.2018 04:00:00 11,7 11,7 0 0 N - 10 -
19.06.2018 03:00:00 12,4 12,4 0 0 N - 10 -
19.06.2018 02:00:00 11,7 11,7 0 0 N - 10 -
19.06.2018 01:00:00 14,0 13,8 5 3 W - 10 -
19.06.2018 00:00:00 16,5 15,4 8 4 W - 10 -
18.06.2018 23:00:00 17,8 15,0 0 0 N 1023,0 10 0,0
18.06.2018 22:00:00 19,3 14,5 8 4 WSW 1022,7 10 -
18.06.2018 21:00:00 20,1 14,4 13 7 W 1022,0 10 -
18.06.2018 20:00:00 20,4 14,3 13 7 W 1022,1 10 -
18.06.2018 19:00:00 21,1 14,0 15 8 WSW 1022,5 10 -
18.06.2018 18:00:00 21,0 13,7 16 9 W 1022,6 10 -
18.06.2018 17:00:00 - - - - - - - -
18.06.2018 16:00:00 - - - - - - - -
18.06.2018 15:00:00 - - - - - - - -
18.06.2018 14:00:00 - - - - - - - -
18.06.2018 13:00:00 - - - - - - - -
18.06.2018 12:00:00 - - - - - - - -
18.06.2018 11:00:00 19,3 11,3 16 9 W 1022,5 10 -
18.06.2018 10:00:00 19,1 12,4 11 6 W 1022,5 10 -
18.06.2018 09:00:00 18,3 12,3 11 6 W 1022,5 10 -
18.06.2018 08:00:00 16,1 12,4 5 3 W 1022,1 10 -
18.06.2018 07:00:00 13,9 13,3 0 0 N 1022,2 10 -
18.06.2018 06:00:00 12,3 12,3 0 0 N 1022,0 10 -
18.06.2018 05:00:00 12,1 12,1 0 0 N 1022,0 10 -
18.06.2018 04:00:00 13,7 11,9 0 0 N 1021,8 10 -
18.06.2018 03:00:00 14,4 11,9 9 5 W 1022,1 10 -
18.06.2018 02:00:00 13,5 12,9 8 4 W 1021,5 10 -
18.06.2018 01:00:00 13,6 12,2 9 5 W 1021,5 10 -
18.06.2018 00:00:00 13,2 12,1 0 0 N 1021,2 10 -
17.06.2018 23:00:00 16,3 11,4 8 4 WSW 1020,7 10 -
17.06.2018 22:00:00 16,8 10,9 9 5 W 1020,1 10 -
17.06.2018 21:00:00 17,7 11,5 15 8 W 1019,7 10 -
17.06.2018 20:00:00 19,4 11,7 21 11 W 1019,8 10 -
17.06.2018 19:00:00 20,3 12,5 16 9 WNW 1019,2 10 -
17.06.2018 18:00:00 19,6 11,6 18 10 W 1018,6 10 -
17.06.2018 17:00:00 20,1 12,6 22 12 W 1018,7 10 -
17.06.2018 16:00:00 21,4 12,8 21 11 W 1018,4 10 -
17.06.2018 15:00:00 21,7 12,5 18 10 WSW 1018,4 10 -
17.06.2018 14:00:00 20,6 13,1 18 10 SW 1017,9 10 -
17.06.2018 13:00:00 20,9 11,8 18 10 WNW 1018,2 10 -
17.06.2018 12:00:00 20,2 12,2 11 6 W 1018,3 10 -
17.06.2018 11:00:00 21,1 12,5 13 7 SW 1018,2 10 -
17.06.2018 10:00:00 19,6 12,1 8 4 WSW 1018,2 10 -
17.06.2018 09:00:00 18,6 13,2 0 0 N 1018,1 10 -
17.06.2018 08:00:00 15,4 13,9 0 0 N 1017,8 10 -
17.06.2018 07:00:00 13,6 13,4 0 0 N 1017,8 10 -
17.06.2018 06:00:00 11,7 11,5 0 0 N 1017,6 10 -
17.06.2018 05:00:00 10,7 10,7 0 0 N 1016,9 10 -
17.06.2018 04:00:00 13,9 13,1 11 6 W 1016,8 10 -
17.06.2018 03:00:00 13,4 12,9 9 5 W 1016,6 10 -
17.06.2018 02:00:00 16,9 12,6 9 5 W 1016,1 10 -
17.06.2018 01:00:00 18,2 14,3 11 6 W 1016,0 10 -
17.06.2018 00:00:00 18,5 15,7 11 6 W 1015,7 10 -
16.06.2018 23:00:00 19,2 15,7 11 6 W 1015,7 10 -
16.06.2018 22:00:00 20,5 15,0 11 6 W 1015,1 10 -
16.06.2018 21:00:00 22,0 14,1 16 9 W 1014,4 10 -
16.06.2018 20:00:00 24,4 13,3 11 6 W 1014,1 10 -
16.06.2018 19:00:00 25,4 13,2 8 4 W 1013,7 10 -
16.06.2018 18:00:00 26,5 13,2 11 6 W 1013,7 10 -
16.06.2018 17:00:00 26,0 13,1 13 7 WSW 1014,2 10 -
16.06.2018 16:00:00 25,7 14,2 15 8 WSW 1014,5 10 -
16.06.2018 15:00:00 24,9 13,7 13 7 W 1014,9 10 -
16.06.2018 14:00:00 23,9 15,4 11 6 WSW 1015,2 10 -
16.06.2018 13:00:00 24,0 14,9 9 5 W 1015,4 10 -
16.06.2018 12:00:00 23,2 15,2 5 3 NNE 1015,8 10 -
16.06.2018 11:00:00 22,3 15,1 0 0 N 1015,9 10 -
16.06.2018 10:00:00 19,9 16,5 5 3 E 1016,2 10 -
16.06.2018 09:00:00 17,6 16,9 0 0 N 1016,2 10 -
16.06.2018 08:00:00 16,1 16,1 0 0 N 1016,0 10 -
16.06.2018 07:00:00 14,8 14,8 0 0 N 1016,0 10 -
16.06.2018 06:00:00 13,3 13,3 0 0 N 1016,1 10 -
16.06.2018 05:00:00 12,9 12,9 0 0 N 1016,1 10 -
16.06.2018 04:00:00 12,9 12,9 0 0 N 1016,1 10 -
16.06.2018 03:00:00 13,6 13,6 0 0 N 1016,4 10 -
16.06.2018 02:00:00 14,5 14,5 0 0 N 1016,7 10 -
16.06.2018 01:00:00 15,3 15,3 0 0 N 1016,3 10 -
16.06.2018 00:00:00 16,6 16,4 5 3 ESE 1016,3 10 -
15.06.2018 23:00:00 16,8 16,8 0 0 N 1016,7 10 0,0

tt = temperature
td = dewpoint
ff = wind speed
dd = wind direction
ppp = reduced air pressure
vv = visibility
rr = precipitation

Next stations